Tracking 35274 objects as of 11-Sep-2026
HD Live streaming from Space Station
objects crossing your sky now

TJS-7

Track TJS-7 now!
TJS-7 is classified as:


NORAD ID: 49115
Int'l Code: 2021-077A
Launch date: August 24, 2021
Source: People's Republic of China (PRC)
Launch site: Xichang Space Center, China (XSC)
Your satellite tracking list
Your tracking list is empty




NASA's NSSDC Master Catalog

Two Line Element Set (TLE):
1 49115U 21077A   26254.35601109 -.00000141  00000-0  00000+0 0  9997
2 49115   0.1403 261.4299 0001767 100.1803  17.4011  1.00273754 10416
Source of the keplerian elements: AFSPC